Location: Hoyos del Collado
(40.3594°N, 5.2003°W)
Time: 10:29:29
(UTC+00:00)

Cosmos 1898 Rocket - Pass Details

Date: 18 April 2024
Orbit: 752 x 781 km, 74.0° (Epoch: 21 May)

Event Time Altitude Azimuth Distance (km) Brightness Sun altitude
Rises 22:10:11 0° 343° (NNW) 3,244 7.8 -30.3°
Reaches altitude 10° 22:12:36 10° 346° (NNW) 2,309 6.7 -30.6°
Enters shadow 22:16:19 45° 5° (N) 1,030 4.3 -31.0°
